| time (UTC) | temp C | wind direction | speed KPH | gust KPH | rain 1hr cm | rain 24hr cm | rain mn cm | humidity % | barometer mb |
| 20260506134446 | 13 | 358 | 6.4 | 11.3 | 0.00 | 0.00 | 0.00 | 77 | 1013.1 |
| 20260506133943 | 13 | 352 | 11.3 | 17.7 | 0.00 | 0.00 | 0.00 | 77 | 1013.1 |
| 20260506133441 | 13 | 1 | 12.9 | 16.1 | 0.00 | 0.00 | 0.00 | 77 | 1013.2 |
| 20260506132937 | 13 | 351 | 11.3 | 16.1 | 0.00 | 0.00 | 0.00 | 77 | 1012.9 |
| 20260506132434 | 13 | 4 | 9.7 | 12.9 | 0.00 | 0.00 | 0.00 | 77 | 1012.9 |
| 20260506131932 | 13 | 2 | 9.7 | 11.3 | 0.00 | 0.00 | 0.00 | 78 | 1012.8 |
| 20260506131428 | 13 | 336 | 9.7 | 14.5 | 0.00 | 0.00 | 0.00 | 78 | 1012.8 |
| 20260506130925 | 13 | 346 | 12.9 | 16.1 | 0.00 | 0.00 | 0.00 | 79 | 1012.8 |
| 20260506130421 | 13 | 332 | 16.1 | 22.5 | 0.00 | 0.00 | 0.00 | 78 | 1012.7 |
| 20260506125920 | 13 | 334 | 14.5 | 17.7 | 0.00 | 0.00 | 0.00 | 78 | 1012.9 |
| 20260506125418 | 13 | 355 | 8.0 | 11.3 | 0.00 | 0.00 | 0.00 | 78 | 1012.7 |
| 20260506124916 | 13 | 28 | 11.3 | 17.7 | 0.00 | 0.00 | 0.00 | 78 | 1012.6 |
| 20260506124413 | 13 | 13 | 6.4 | 9.7 | 0.00 | 0.00 | 0.00 | 78 | 1012.6 |
| 20260506123911 | 13 | 358 | 8.0 | 11.3 | 0.00 | 0.00 | 0.00 | 78 | 1012.4 |
| 20260506123408 | 13 | 357 | 9.7 | 12.9 | 0.00 | 0.00 | 0.00 | 78 | 1012.3 |
| 20260506122905 | 13 | 353 | 14.5 | 17.7 | 0.00 | 0.00 | 0.00 | 78 | 1012.0 |
| 20260506122402 | 13 | 2 | 9.7 | 17.7 | 0.00 | 0.00 | 0.00 | 78 | 1012.1 |
| 20260506121901 | 13 | 317 | 11.3 | 14.5 | 0.00 | 0.00 | 0.00 | 78 | 1012.1 |
| 20260506121357 | 14 | 359 | 11.3 | 14.5 | 0.00 | 0.00 | 0.00 | 78 | 1012.1 |
| 20260506120854 | 13 | 333 | 16.1 | 20.9 | 0.00 | 0.00 | 0.00 | 78 | 1012.1 |
| 20260506120352 | 14 | 336 | 11.3 | 16.1 | 0.00 | 0.00 | 0.00 | 79 | 1012.1 |
| 20260506115849 | 14 | 38 | 16.1 | 22.5 | 0.00 | 0.00 | 0.00 | 78 | 1012.0 |
| 20260506115347 | 14 | 4 | 4.8 | 9.7 | 0.00 | 0.00 | 0.00 | 78 | 1012.1 |
| 20260506114845 | 14 | 356 | 4.8 | 4.8 | 0.00 | 0.00 | 0.00 | 78 | 1011.9 |
| 20260506114342 | 14 | 353 | 11.3 | 14.5 | 0.00 | 0.00 | 0.00 | 79 | 1011.8 |
| 20260506113841 | 14 | 335 | 6.4 | 11.3 | 0.00 | 0.00 | 0.00 | 80 | 1011.6 |
| 20260506113338 | 14 | 319 | 16.1 | 17.7 | 0.00 | 0.00 | 0.00 | 80 | 1011.8 |
| 20260506112834 | 14 | 318 | 14.5 | 17.7 | 0.00 | 0.00 | 0.00 | 81 | 1011.5 |
| 20260506112332 | 14 | 338 | 12.9 | 22.5 | 0.00 | 0.00 | 0.00 | 81 | 1011.3 |
| 20260506111829 | 14 | 326 | 16.1 | 20.9 | 0.00 | 0.00 | 0.00 | 81 | 1011.2 |
| 20260506111327 | 14 | 342 | 11.3 | 16.1 | 0.00 | 0.00 | 0.00 | 81 | 1011.0 |
| 20260506110825 | 15 | 344 | 22.5 | 25.7 | 0.00 | 0.00 | 0.00 | 81 | 1011.1 |
| 20260506110321 | 15 | 329 | 11.3 | 14.5 | 0.00 | 0.00 | 0.00 | 81 | 1011.1 |
| 20260506105818 | 15 | 298 | 8.0 | 11.3 | 0.00 | 0.00 | 0.00 | 81 | 1011.0 |
| 20260506105315 | 15 | 278 | 9.7 | 12.9 | 0.00 | 0.00 | 0.00 | 80 | 1010.9 |
| 20260506104812 | 15 | 323 | 14.5 | 16.1 | 0.00 | 0.00 | 0.00 | 80 | 1010.7 |
| 20260506104310 | 15 | 345 | 11.3 | 14.5 | 0.00 | 0.00 | 0.00 | 80 | 1010.5 |
| 20260506103808 | 15 | 319 | 11.3 | 14.5 | 0.00 | 0.00 | 0.00 | 80 | 1010.8 |
| 20260506103305 | 15 | 316 | 8.0 | 14.5 | 0.00 | 0.00 | 0.00 | 80 | 1010.3 |
| 20260506102802 | 15 | 327 | 6.4 | 8.0 | 0.00 | 0.00 | 0.00 | 80 | 1010.3 |
| 20260506102300 | 15 | 353 | 11.3 | 14.5 | 0.00 | 0.00 | 0.00 | 79 | 1010.5 |
| 20260506101757 | 15 | 29 | 14.5 | 17.7 | 0.00 | 0.00 | 0.00 | 79 | 1010.2 |
| 20260506101253 | 16 | 341 | 12.9 | 17.7 | 0.00 | 0.00 | 0.00 | 78 | 1010.1 |
| 20260506100751 | 16 | 5 | 4.8 | 8.0 | 0.00 | 0.00 | 0.00 | 78 | 1010.0 |
| 20260506100249 | 16 | 305 | 8.0 | 11.3 | 0.00 | 0.00 | 0.00 | 78 | 1010.1 |
| 20260506095747 | 16 | 332 | 3.2 | 4.8 | 0.00 | 0.00 | 0.00 | 78 | 1009.9 |
| 20260506095244 | 16 | 321 | 11.3 | 12.9 | 0.00 | 0.00 | 0.00 | 77 | 1009.9 |
| 20260506094740 | 16 | 357 | 8.0 | 9.7 | 0.00 | 0.00 | 0.00 | 77 | 1009.9 |
| 20260506094239 | 16 | 330 | 9.7 | 11.3 | 0.00 | 0.00 | 0.00 | 77 | 1009.7 |
| 20260506093737 | 16 | 337 | 9.7 | 11.3 | 0.00 | 0.00 | 0.00 | 77 | 1009.6 |
| 20260506093234 | 16 | 0 | 11.3 | 14.5 | 0.00 | 0.00 | 0.00 | 77 | 1009.9 |
| 20260506092732 | 17 | 308 | 8.0 | 11.3 | 0.00 | 0.00 | 0.00 | 77 | 1009.7 |
| 20260506092229 | 17 | 339 | 3.2 | 3.2 | 0.00 | 0.00 | 0.00 | 78 | 1009.7 |
| 20260506091726 | 17 | 354 | 11.3 | 12.9 | 0.00 | 0.00 | 0.00 | 78 | 1009.8 |
| 20260506091224 | 17 | 338 | 8.0 | 9.7 | 0.00 | 0.00 | 0.00 | 78 | 1009.8 |
| 20260506090721 | 17 | 312 | 9.7 | 12.9 | 0.00 | 0.00 | 0.00 | 77 | 1009.7 |
| 20260506090218 | 17 | 331 | 8.0 | 11.3 | 0.00 | 0.00 | 0.00 | 77 | 1009.7 |
| 20260506085715 | 17 | 354 | 11.3 | 14.5 | 0.00 | 0.00 | 0.00 | 77 | 1009.5 |
| 20260506085211 | 17 | 300 | 8.0 | 11.3 | 0.00 | 0.00 | 0.00 | 77 | 1009.4 |
| 20260506084708 | 17 | 348 | 11.3 | 14.5 | 0.00 | 0.00 | 0.00 | 77 | 1009.4 |
| 20260506084204 | 17 | 350 | 8.0 | 11.3 | 0.00 | 0.00 | 0.00 | 77 | 1009.3 |
| 20260506083701 | 17 | 27 | 8.0 | 9.7 | 0.00 | 0.00 | 0.00 | 76 | 1009.4 |
| 20260506083159 | 17 | 339 | 6.4 | 8.0 | 0.00 | 0.00 | 0.00 | 76 | 1009.3 |
| 20260506082656 | 17 | 353 | 4.8 | 8.0 | 0.00 | 0.00 | 0.00 | 76 | 1009.0 |
| 20260506082151 | 17 | 21 | 9.7 | 11.3 | 0.00 | 0.00 | 0.00 | 76 | 1009.0 |
| 20260506081649 | 17 | 3 | 6.4 | 9.7 | 0.00 | 0.00 | 0.00 | 76 | 1009.2 |
| 20260506081147 | 17 | 349 | 8.0 | 9.7 | 0.00 | 0.00 | 0.00 | 76 | 1009.0 |
| 20260506080645 | 18 | 3 | 14.5 | 17.7 | 0.00 | 0.00 | 0.00 | 76 | 1009.0 |
| 20260506080141 | 18 | 349 | 3.2 | 4.8 | 0.00 | 0.00 | 0.00 | 76 | 1009.2 |
| 20260506073124 | 18 | 352 | 8.0 | 9.7 | 0.00 | 0.00 | 0.00 | 76 | 1009.5 |
| 20260506072621 | 18 | 353 | 4.8 | 8.0 | 0.00 | 0.00 | 0.00 | 76 | 1009.5 |
| 20260506072119 | 18 | 347 | 6.4 | 8.0 | 0.00 | 0.00 | 0.00 | 76 | 1009.3 |
| 20260506071616 | 18 | 352 | 4.8 | 4.8 | 0.00 | 0.00 | 0.00 | 76 | 1009.2 |
| 20260506071114 | 18 | 332 | 6.4 | 9.7 | 0.00 | 0.00 | 0.00 | 76 | 1009.3 |
| 20260506070611 | 18 | 26 | 6.4 | 9.7 | 0.00 | 0.00 | 0.00 | 76 | 1009.4 |
| 20260506070108 | 18 | 348 | 6.4 | 8.0 | 0.00 | 0.00 | 0.00 | 76 | 1009.4 |
| 20260506062045 | 19 | 337 | 12.9 | 16.1 | 0.00 | 0.00 | 0.00 | 75 | 1009.4 |
| 20260506061541 | 19 | 347 | 12.9 | 16.1 | 0.00 | 0.00 | 0.00 | 75 | 1009.3 |
| 20260506061038 | 20 | 342 | 11.3 | 14.5 | 0.00 | 0.00 | 0.00 | 75 | 1009.2 |
| 20260506060537 | 20 | 341 | 8.0 | 12.9 | 0.00 | 0.00 | 0.00 | 75 | 1009.0 |
| 20260506051006 | 21 | 336 | 8.0 | 12.9 | 0.00 | 0.00 | 0.00 | 74 | 1008.8 |
| 20260506050503 | 21 | 317 | 9.7 | 12.9 | 0.00 | 0.00 | 0.00 | 74 | 1008.8 |
| 20260506044954 | 22 | 337 | 11.3 | 12.9 | 0.00 | 0.00 | 0.00 | 73 | 1008.5 |
| 20260506044452 | 22 | 348 | 4.8 | 4.8 | 0.00 | 0.00 | 0.00 | 73 | 1008.6 |
| 20260506043948 | 22 | 358 | 3.2 | 4.8 | 0.00 | 0.00 | 0.00 | 72 | 1008.3 |
| 20260506043445 | 22 | 322 | 6.4 | 8.0 | 0.00 | 0.00 | 0.00 | 72 | 1008.5 |
| 20260506042943 | 22 | 338 | 11.3 | 14.5 | 0.00 | 0.00 | 0.00 | 71 | 1008.5 |
| 20260506042443 | 22 | 355 | 11.3 | 11.3 | 0.00 | 0.00 | 0.00 | 71 | 1008.5 |
| 20260506041940 | 22 | 327 | 9.7 | 11.3 | 0.00 | 0.00 | 0.00 | 71 | 1008.5 |
| 20260506041438 | 23 | 16 | 6.4 | 9.7 | 0.00 | 0.00 | 0.00 | 71 | 1008.4 |
| 20260506040935 | 23 | 316 | 9.7 | 11.3 | 0.00 | 0.00 | 0.00 | 71 | 1008.4 |
| 20260506040432 | 23 | 339 | 3.2 | 4.8 | 0.00 | 0.00 | 0.00 | 71 | 1008.1 |
| 20260506035928 | 23 | 315 | 3.2 | 3.2 | 0.00 | 0.00 | 0.00 | 71 | 1008.1 |
| 20260506035426 | 23 | 331 | 3.2 | 3.2 | 0.00 | 0.00 | 0.00 | 70 | 1007.9 |
| 20260506034922 | 23 | 295 | 6.4 | 8.0 | 0.00 | 0.00 | 0.00 | 70 | 1007.8 |
| 20260506034420 | 23 | 322 | 9.7 | 11.3 | 0.00 | 0.00 | 0.00 | 70 | 1007.9 |
| 20260506033917 | 23 | 308 | 4.8 | 8.0 | 0.00 | 0.00 | 0.00 | 70 | 1007.7 |
| 20260506033414 | 23 | 340 | 6.4 | 9.7 | 0.00 | 0.00 | 0.00 | 70 | 1007.7 |
| 20260506032910 | 24 | 358 | 4.8 | 4.8 | 0.00 | 0.00 | 0.00 | 71 | 1007.7 |
| 20260506032408 | 25 | 278 | 9.7 | 11.3 | 0.00 | 0.00 | 0.00 | 71 | 1007.9 |
| 20260506031904 | 26 | 313 | 6.4 | 8.0 | 0.00 | 0.00 | 0.00 | 79 | 1008.0 |
| 20260506031401 | 26 | 278 | 4.8 | 8.0 | 0.00 | 0.00 | 0.00 | 79 | 1007.7 |
| 20260506030859 | 26 | 284 | 4.8 | 4.8 | 0.00 | 0.00 | 0.00 | 79 | 1007.4 |
| 20260506030357 | 26 | 277 | 1.6 | 3.2 | 0.00 | 0.00 | 0.00 | 79 | 1007.3 |
| 20260506025854 | 26 | 275 | 1.6 | 1.6 | 0.00 | 0.00 | 0.00 | 79 | 1007.2 |
| 20260506025350 | 26 | 288 | 3.2 | 3.2 | 0.00 | 0.00 | 0.00 | 79 | 1007.2 |
| 20260506024847 | 25 | 282 | 3.2 | 4.8 | 0.00 | 0.00 | 0.00 | 79 | 1006.9 |
| 20260506024345 | 25 | 272 | 4.8 | 4.8 | 0.00 | 0.00 | 0.00 | 79 | 1006.7 |
| 20260506023840 | 25 | 250 | 3.2 | 3.2 | 0.00 | 0.00 | 0.00 | 79 | 1006.6 |
| 20260506023337 | 25 | 261 | 1.6 | 1.6 | 0.00 | 0.00 | 0.00 | 79 | 1006.4 |
| 20260506022834 | 25 | 242 | 1.6 | 1.6 | 0.00 | 0.00 | 0.00 | 79 | 1006.0 |
| 20260506022332 | 25 | 319 | 0.0 | 0.0 | 0.00 | 0.00 | 0.00 | 79 | 1006.1 |
| 20260506021830 | 25 | 320 | 0.0 | 1.6 | 0.00 | 0.00 | 0.00 | 79 | 1006.0 |
| 20260506021327 | 25 | 293 | 3.2 | 3.2 | 0.00 | 0.00 | 0.00 | 79 | 1006.0 |
| 20260506020823 | 25 | 296 | 3.2 | 3.2 | 0.00 | 0.00 | 0.00 | 79 | 1005.9 |
| 20260506020321 | 25 | 266 | 0.0 | 0.0 | 0.00 | 0.00 | 0.00 | 79 | 1005.7 |
| 20260506015819 | 25 | 223 | 4.8 | 4.8 | 0.00 | 0.00 | 0.00 | 79 | 1005.7 |
| 20260506015316 | 26 | 191 | 3.2 | 8.0 | 0.00 | 0.00 | 0.00 | 79 | 1005.5 |
| 20260506014812 | 26 | 230 | 4.8 | 4.8 | 0.00 | 0.00 | 0.00 | 79 | 1005.5 |
| 20260506014309 | 26 | 146 | 4.8 | 4.8 | 0.00 | 0.00 | 0.00 | 78 | 1005.4 |
| 20260506013806 | 26 | 179 | 1.6 | 3.2 | 0.00 | 0.00 | 0.00 | 78 | 1005.1 |
| 20260506013303 | 26 | 142 | 3.2 | 3.2 | 0.00 | 0.00 | 0.00 | 78 | 1005.2 |
| 20260506012759 | 26 | 187 | 3.2 | 4.8 | 0.00 | 0.00 | 0.00 | 78 | 1005.2 |
| 20260506012256 | 26 | 213 | 6.4 | 8.0 | 0.00 | 0.00 | 0.00 | 77 | 1005.2 |
| 20260506011754 | 26 | 113 | 3.2 | 3.2 | 0.00 | 0.00 | 0.00 | 77 | 1005.1 |
| 20260506011250 | 26 | 128 | 4.8 | 4.8 | 0.00 | 0.00 | 0.00 | 77 | 1005.1 |
| 20260506010748 | 26 | 137 | 6.4 | 8.0 | 0.00 | 0.00 | 0.00 | 77 | 1005.0 |
| 20260506010245 | 26 | 177 | 6.4 | 12.9 | 0.00 | 0.00 | 0.00 | 77 | 1004.9 |
| 20260506005743 | 26 | 166 | 9.7 | 12.9 | 0.00 | 0.00 | 0.00 | 77 | 1005.1 |
| 20260506005239 | 26 | 174 | 9.7 | 14.5 | 0.00 | 0.00 | 0.00 | 76 | 1005.1 |
| 20260506004735 | 26 | 175 | 8.0 | 11.3 | 0.00 | 0.00 | 0.00 | 76 | 1005.2 |
| 20260506004233 | 27 | 194 | 3.2 | 4.8 | 0.00 | 0.00 | 0.00 | 75 | 1005.1 |
| 20260506003728 | 27 | 163 | 3.2 | 8.0 | 0.00 | 0.00 | 0.00 | 75 | 1005.0 |
| 20260506003225 | 27 | 197 | 4.8 | 9.7 | 0.00 | 0.00 | 0.00 | 74 | 1005.0 |
| 20260506002721 | 27 | 194 | 4.8 | 4.8 | 0.00 | 0.00 | 0.00 | 74 | 1004.8 |
| 20260506002218 | 27 | 207 | 8.0 | 11.3 | 0.00 | 0.00 | 0.00 | 74 | 1004.8 |
| 20260506001713 | 27 | 145 | 6.4 | 9.7 | 0.00 | 0.00 | 0.00 | 73 | 1004.8 |
| 20260506001211 | 27 | 125 | 12.9 | 16.1 | 0.00 | 0.00 | 0.00 | 73 | 1004.7 |
| 20260506000708 | 27 | 184 | 6.4 | 9.7 | 0.00 | 0.00 | 0.00 | 73 | 1005.0 |
| 20260506000206 | 27 | 153 | 9.7 | 16.1 | 0.00 | 0.00 | 0.00 | 73 | 1005.0 |
| 20260505235703 | 28 | 216 | 6.4 | 9.7 | 0.00 | 0.00 | 0.00 | 73 | 1004.9 |
| 20260505235200 | 27 | 143 | 3.2 | 4.8 | 0.00 | 0.00 | 0.00 | 73 | 1005.0 |
| 20260505234657 | 27 | 204 | 4.8 | 4.8 | 0.00 | 0.00 | 0.00 | 73 | 1004.9 |
| 20260505234155 | 27 | 194 | 9.7 | 14.5 | 0.00 | 0.00 | 0.00 | 73 | 1005.0 |
| 20260505233651 | 28 | 183 | 8.0 | 9.7 | 0.00 | 0.00 | 0.00 | 72 | 1004.7 |
| 20260505233149 | 28 | 211 | 4.8 | 8.0 | 0.00 | 0.00 | 0.00 | 72 | 1004.8 |
| 20260505232646 | 28 | 220 | 8.0 | 12.9 | 0.00 | 0.00 | 0.00 | 72 | 1004.8 |
| 20260505232144 | 28 | 200 | 12.9 | 14.5 | 0.00 | 0.00 | 0.00 | 72 | 1004.6 |
| 20260505231640 | 28 | 217 | 11.3 | 12.9 | 0.00 | 0.00 | 0.00 | 71 | 1004.7 |
| 20260505231139 | 28 | 169 | 8.0 | 9.7 | 0.00 | 0.00 | 0.00 | 71 | 1004.6 |
| 20260505230636 | 28 | 162 | 6.4 | 8.0 | 0.00 | 0.00 | 0.00 | 71 | 1004.6 |
| 20260505230132 | 28 | 220 | 8.0 | 11.3 | 0.00 | 0.00 | 0.00 | 71 | 1004.6 |
| 20260505225629 | 28 | 155 | 8.0 | 12.9 | 0.00 | 0.00 | 0.00 | 71 | 1004.2 |
| 20260505225125 | 28 | 62 | 14.5 | 16.1 | 0.00 | 0.00 | 0.00 | 70 | 1004.5 |
| 20260505224622 | 28 | 191 | 8.0 | 12.9 | 0.00 | 0.00 | 0.00 | 70 | 1004.2 |
| 20260505224119 | 28 | 110 | 8.0 | 11.3 | 0.00 | 0.00 | 0.00 | 70 | 1004.2 |
| 20260505223616 | 28 | 184 | 14.5 | 17.7 | 0.00 | 0.00 | 0.00 | 69 | 1004.3 |
| 20260505223113 | 29 | 189 | 11.3 | 14.5 | 0.00 | 0.00 | 0.00 | 69 | 1004.6 |
| 20260505222609 | 29 | 169 | 16.1 | 20.9 | 0.00 | 0.00 | 0.00 | 68 | 1004.3 |
| 20260505222105 | 29 | 197 | 14.5 | 20.9 | 0.00 | 0.00 | 0.00 | 69 | 1004.3 |
| 20260505221602 | 29 | 140 | 14.5 | 16.1 | 0.00 | 0.00 | 0.00 | 69 | 1004.1 |
| 20260505221059 | 30 | 105 | 8.0 | 12.9 | 0.00 | 0.00 | 0.00 | 68 | 1004.4 |
| 20260505220556 | 30 | 193 | 17.7 | 20.9 | 0.00 | 0.00 | 0.00 | 67 | 1004.4 |
| 20260505220054 | 30 | 185 | 6.4 | 9.7 | 0.00 | 0.00 | 0.00 | 67 | 1004.4 |
| 20260505215552 | 30 | 177 | 11.3 | 16.1 | 0.00 | 0.00 | 0.00 | 67 | 1004.4 |
| 20260505215049 | 31 | 164 | 17.7 | 20.9 | 0.00 | 0.00 | 0.00 | 65 | 1004.3 |
| 20260505214547 | 30 | 169 | 4.8 | 8.0 | 0.00 | 0.00 | 0.00 | 66 | 1004.5 |
| 20260505214044 | 31 | 127 | 4.8 | 4.8 | 0.00 | 0.00 | 0.00 | 65 | 1004.5 |
| 20260505213542 | 30 | 112 | 6.4 | 9.7 | 0.00 | 0.00 | 0.00 | 66 | 1004.4 |
| 20260505213038 | 30 | 171 | 14.5 | 20.9 | 0.00 | 0.00 | 0.00 | 65 | 1004.6 |
| 20260505212534 | 31 | 189 | 9.7 | 11.3 | 0.00 | 0.00 | 0.00 | 62 | 1004.6 |
| 20260505212032 | 31 | 180 | 11.3 | 14.5 | 0.00 | 0.00 | 0.00 | 63 | 1004.6 |
| 20260505211529 | 31 | 175 | 11.3 | 12.9 | 0.00 | 0.00 | 0.00 | 62 | 1004.8 |
| 20260505211025 | 30 | 139 | 8.0 | 12.9 | 0.00 | 0.00 | 0.00 | 63 | 1004.7 |
| 20260505210522 | 30 | 187 | 11.3 | 14.5 | 0.00 | 0.00 | 0.00 | 64 | 1004.7 |
| 20260505210019 | 31 | 178 | 14.5 | 17.7 | 0.00 | 0.00 | 0.00 | 63 | 1004.7 |
| 20260505205517 | 30 | 153 | 8.0 | 11.3 | 0.00 | 0.00 | 0.00 | 64 | 1004.8 |
| 20260505205014 | 31 | 174 | 9.7 | 12.9 | 0.00 | 0.00 | 0.00 | 63 | 1004.9 |
| 20260505204512 | 30 | 206 | 6.4 | 11.3 | 0.00 | 0.00 | 0.00 | 64 | 1005.0 |
| 20260505204009 | 30 | 174 | 12.9 | 16.1 | 0.00 | 0.00 | 0.00 | 65 | 1005.1 |
| 20260505203505 | 30 | 254 | 14.5 | 24.1 | 0.00 | 0.00 | 0.00 | 64 | 1005.0 |
| 20260505203001 | 30 | 202 | 8.0 | 12.9 | 0.00 | 0.00 | 0.00 | 64 | 1005.0 |
| 20260505202458 | 30 | 213 | 8.0 | 11.3 | 0.00 | 0.00 | 0.00 | 64 | 1005.2 |
| 20260505201954 | 30 | 172 | 9.7 | 12.9 | 0.00 | 0.00 | 0.00 | 65 | 1005.3 |
| 20260505201451 | 30 | 183 | 11.3 | 14.5 | 0.00 | 0.00 | 0.00 | 65 | 1005.4 |
| 20260505200949 | 30 | 154 | 12.9 | 17.7 | 0.00 | 0.00 | 0.00 | 65 | 1005.4 |
| 20260505200447 | 30 | 192 | 9.7 | 16.1 | 0.00 | 0.00 | 0.00 | 65 | 1005.2 |
| 20260505195942 | 30 | 202 | 8.0 | 11.3 | 0.00 | 0.00 | 0.00 | 66 | 1005.5 |
| 20260505195440 | 30 | 233 | 8.0 | 9.7 | 0.00 | 0.00 | 0.00 | 66 | 1005.5 |
| 20260505194937 | 30 | 202 | 9.7 | 11.3 | 0.00 | 0.00 | 0.00 | 66 | 1005.2 |
| 20260505194434 | 29 | 202 | 14.5 | 20.9 | 0.00 | 0.00 | 0.00 | 66 | 1005.4 |
| 20260505193934 | 30 | 222 | 9.7 | 11.3 | 0.00 | 0.00 | 0.00 | 67 | 1005.4 |
| 20260505193432 | 30 | 181 | 8.0 | 11.3 | 0.00 | 0.00 | 0.00 | 66 | 1005.5 |
| 20260505192930 | 29 | 173 | 11.3 | 14.5 | 0.00 | 0.00 | 0.00 | 67 | 1005.5 |
| 20260505192428 | 28 | 168 | 11.3 | 16.1 | 0.00 | 0.00 | 0.00 | 67 | 1005.3 |
| 20260505191925 | 29 | 168 | 12.9 | 14.5 | 0.00 | 0.00 | 0.00 | 67 | 1005.5 |
| 20260505191424 | 29 | 168 | 8.0 | 11.3 | 0.00 | 0.00 | 0.00 | 67 | 1005.6 |
| 20260505190920 | 29 | 185 | 8.0 | 11.3 | 0.00 | 0.00 | 0.00 | 66 | 1005.6 |
| 20260505190415 | 28 | 223 | 12.9 | 16.1 | 0.00 | 0.00 | 0.00 | 67 | 1005.6 |
| 20260505185911 | 29 | 81 | 11.3 | 16.1 | 0.00 | 0.00 | 0.00 | 67 | 1005.8 |
| 20260505185408 | 29 | 193 | 8.0 | 9.7 | 0.00 | 0.00 | 0.00 | 66 | 1005.9 |
| 20260505184904 | 28 | 232 | 9.7 | 12.9 | 0.00 | 0.00 | 0.00 | 67 | 1005.8 |
| 20260505184401 | 28 | 246 | 11.3 | 14.5 | 0.00 | 0.00 | 0.00 | 67 | 1006.0 |
| 20260505183858 | 28 | 205 | 16.1 | 17.7 | 0.00 | 0.00 | 0.00 | 68 | 1006.1 |
| 20260505183355 | 28 | 189 | 9.7 | 14.5 | 0.00 | 0.00 | 0.00 | 69 | 1006.1 |
| 20260505182852 | 27 | 239 | 11.3 | 16.1 | 0.00 | 0.00 | 0.00 | 70 | 1006.1 |
| 20260505182348 | 27 | 205 | 11.3 | 14.5 | 0.00 | 0.00 | 0.00 | 69 | 1005.9 |
| 20260505181845 | 27 | 173 | 11.3 | 14.5 | 0.00 | 0.00 | 0.00 | 69 | 1006.2 |
| 20260505181342 | 27 | 217 | 9.7 | 14.5 | 0.00 | 0.00 | 0.00 | 70 | 1006.0 |
| 20260505180839 | 27 | 201 | 8.0 | 11.3 | 0.00 | 0.00 | 0.00 | 69 | 1006.1 |
| 20260505180335 | 27 | 193 | 20.9 | 27.4 | 0.00 | 0.00 | 0.00 | 69 | 1006.0 |
| 20260505175832 | 27 | 242 | 14.5 | 17.7 | 0.00 | 0.00 | 0.00 | 71 | 1006.0 |
| 20260505175328 | 27 | 189 | 11.3 | 12.9 | 0.00 | 0.00 | 0.00 | 72 | 1005.8 |
| 20260505174825 | 27 | 195 | 12.9 | 24.1 | 0.00 | 0.00 | 0.00 | 72 | 1005.8 |
| 20260505174322 | 27 | 203 | 16.1 | 17.7 | 0.00 | 0.00 | 0.00 | 72 | 1006.0 |
| 20260505173818 | 27 | 193 | 6.4 | 11.3 | 0.00 | 0.00 | 0.00 | 71 | 1005.9 |
| 20260505173315 | 26 | 181 | 11.3 | 16.1 | 0.00 | 0.00 | 0.00 | 72 | 1006.2 |
| 20260505172813 | 26 | 172 | 19.3 | 25.7 | 0.00 | 0.00 | 0.00 | 71 | 1006.2 |
| 20260505172310 | 27 | 59 | 12.9 | 16.1 | 0.00 | 0.00 | 0.00 | 72 | 1006.0 |
| 20260505171804 | 26 | 204 | 8.0 | 9.7 | 0.00 | 0.00 | 0.00 | 72 | 1006.3 |
| 20260505171301 | 26 | 179 | 12.9 | 16.1 | 0.00 | 0.00 | 0.00 | 73 | 1006.0 |
| 20260505170757 | 26 | 187 | 6.4 | 11.3 | 0.00 | 0.00 | 0.00 | 73 | 1006.0 |
| 20260505170255 | 26 | 178 | 20.9 | 27.4 | 0.00 | 0.00 | 0.00 | 73 | 1006.1 |
| 20260505165749 | 26 | 246 | 14.5 | 17.7 | 0.00 | 0.00 | 0.00 | 73 | 1006.0 |
| 20260505165246 | 26 | 186 | 11.3 | 16.1 | 0.00 | 0.00 | 0.00 | 74 | 1005.9 |
| 20260505164741 | 26 | 211 | 11.3 | 16.1 | 0.00 | 0.00 | 0.00 | 73 | 1005.9 |
| 20260505164239 | 26 | 232 | 14.5 | 17.7 | 0.00 | 0.00 | 0.00 | 73 | 1006.2 |
| 20260505163737 | 26 | 187 | 11.3 | 12.9 | 0.00 | 0.00 | 0.00 | 73 | 1006.3 |
| 20260505163235 | 25 | 220 | 11.3 | 16.1 | 0.00 | 0.00 | 0.00 | 74 | 1006.2 |
| 20260505162732 | 26 | 202 | 11.3 | 16.1 | 0.00 | 0.00 | 0.00 | 74 | 1006.3 |
| 20260505162229 | 26 | 184 | 19.3 | 27.4 | 0.00 | 0.00 | 0.00 | 73 | 1005.9 |
| 20260505161726 | 25 | 239 | 12.9 | 16.1 | 0.00 | 0.00 | 0.00 | 74 | 1006.0 |
| 20260505161224 | 25 | 186 | 16.1 | 17.7 | 0.00 | 0.00 | 0.00 | 75 | 1006.1 |
| 20260505160721 | 25 | 179 | 9.7 | 14.5 | 0.00 | 0.00 | 0.00 | 75 | 1006.3 |
| 20260505160219 | 25 | 168 | 20.9 | 25.7 | 0.00 | 0.00 | 0.00 | 75 | 1006.1 |
| 20260505153157 | 24 | 186 | 16.1 | 22.5 | 0.00 | 0.00 | 0.00 | 78 | 1006.2 |
| 20260505152654 | 24 | 180 | 25.7 | 35.4 | 0.00 | 0.00 | 0.00 | 78 | 1006.1 |
| 20260505152150 | 24 | 233 | 12.9 | 17.7 | 0.00 | 0.00 | 0.00 | 78 | 1006.4 |
| 20260505151646 | 24 | 196 | 14.5 | 17.7 | 0.00 | 0.00 | 0.00 | 78 | 1006.2 |
| 20260505151143 | 23 | 183 | 16.1 | 20.9 | 0.00 | 0.00 | 0.00 | 78 | 1006.3 |
| 20260505150639 | 23 | 184 | 22.5 | 29.0 | 0.00 | 0.00 | 0.00 | 78 | 1006.6 |
| 20260505150137 | 23 | 198 | 12.9 | 16.1 | 0.00 | 0.00 | 0.00 | 79 | 1006.3 |
| 20260505140605 | 23 | 183 | 12.9 | 16.1 | 0.00 | 0.00 | 0.00 | 81 | 1006.0 |